Weather in Osypenko

Ukraine / Zaporizhia Region     46°54′59″N   36°49′08″E
temp.,
°C
wind,
m/s
gust,
m/s
humid.,
%
clouds,
%
prec.,
mm/h
press.,
hPa
HPBL,
m
8 august, mon
mon800:00+25nnw46310 0.0 101372
03:00+22nne510335 0.0 1013138
06:00+22nne48353 0.0 1014128
09:00+32ene57180 0.0 1014757
12:00+36e66132 0.0 10143770
15:00+35ese78130 0.0 10143433
18:00+34ese57130 0.0 10132008
21:00+27ne33204 0.0 101415
9 august, tue
tue900:00+25nne47224 0.0 101485
03:00+22nne47280 0.0 101491
06:00+22ne33290 0.0 101543
09:00+32ene56170 0.0 1015552
12:00+36e88130 0.0 10143559
15:00+36ese89130 0.0 10133360
18:00+34ese68150 0.0 10122018
21:00+27ne46240 0.0 101369
10 august, wed
wed1000:00+26ne5132755 0.0 1012221
03:00+24ne5112977 0.0 1012168
06:00+23ne5113358 0.0 1012180
09:00+32e681928 0.0 1012652
12:00+36e9101471 0.0 10113436
15:00+36e9101489 0.0 10103372
18:00+35e810158 0.0 10093116
21:00+28ene482492 0.0 1009112
11 august, thu
thu1100:00+26ne41029100 0.0 1009159
03:00+26ene41029100 0.0 1009222
06:00+25ene5123496 0.0 1010291
09:00+32e8112518 0.0 10111593
12:00+34e1011195 0.0 10112376
15:00+35e10111699 0.0 10112535
18:00+34e8111615 0.0 10102700
21:00+31ne6132184 0.0 1011412
12 august, fri
fri1200:00+30ne8162070 0.0 1011600
03:00+28ene8153798 0.6 1011565
06:00+27ene9163888 0.6 1012690
09:00+31e10142692 1.1 10131349
12:00+33e111419100 0.1 10131781
15:00+37e10121431 0.1 10112875
18:00+36e8121497 0.0 10112747
21:00+29ene615295 0.1 1011351